TimePST,TemperatureF,Dew PointF,Humidity,Sea Level PressureIn,VisibilityMPH,Wind Direction,Wind SpeedMPH,Gust SpeedMPH,PrecipitationIn,Events,Conditions,WindDirDegrees,DateUTC
12:52 AM,19.9,16.0,85,30.02,10.0,North,4.6,-,N/A,,Clear,10,2012-12-19 08:52:00
1:47 AM,19.4,15.8,86,29.98,10.0,NNW,3.5,-,N/A,,Partly Cloudy,340,2012-12-19 09:47:00
1:52 AM,19.9,16.0,85,30.03,10.0,North,3.5,-,N/A,,Scattered Clouds,350,2012-12-19 09:52:00
2:02 AM,19.4,15.8,86,29.99,10.0,North,5.8,-,N/A,,Mostly Cloudy,350,2012-12-19 10:02:00
2:37 AM,21.2,17.6,86,29.98,10.0,North,4.6,-,N/A,,Scattered Clouds,350,2012-12-19 10:37:00
2:52 AM,21.0,18.0,88,30.03,10.0,Calm,Calm,-,N/A,,Clear,0,2012-12-19 10:52:00
3:52 AM,21.0,18.0,88,30.03,10.0,North,4.6,-,N/A,,Partly Cloudy,350,2012-12-19 11:52:00
4:52 AM,23.0,19.0,85,30.03,10.0,NNE,5.8,-,N/A,,Overcast,20,2012-12-19 12:52:00
5:52 AM,24.1,21.0,88,30.03,10.0,NNW,3.5,-,N/A,,Overcast,330,2012-12-19 13:52:00
6:52 AM,26.1,23.0,88,30.02,10.0,Calm,Calm,-,N/A,,Overcast,0,2012-12-19 14:52:00
7:49 AM,28.4,24.8,86,29.97,2.5,South,4.6,-,0.00,Snow,Light Snow,170,2012-12-19 15:49:00
7:52 AM,28.0,24.1,85,30.02,2.5,SSE,4.6,-,0.00,Snow,Light Snow,160,2012-12-19 15:52:00
8:18 AM,28.4,24.8,86,29.97,4.0,SSE,8.1,-,0.00,Snow,Light Snow,150,2012-12-19 16:18:00
8:52 AM,30.0,25.0,82,30.01,4.0,SSE,10.4,-,0.00,,Haze,150,2012-12-19 16:52:00
9:52 AM,30.9,26.1,82,30.00,10.0,SSE,10.4,-,N/A,,Overcast,150,2012-12-19 17:52:00
10:52 AM,33.1,26.1,75,29.98,10.0,SE,10.4,-,N/A,,Overcast,140,2012-12-19 18:52:00
11:19 AM,33.8,24.8,70,29.93,2.0,SSE,15.0,21.9,0.00,Snow,Light Snow,150,2012-12-19 19:19:00
11:27 AM,33.8,24.8,70,29.93,2.0,SSE,19.6,24.2,0.00,Snow,Light Snow,160,2012-12-19 19:27:00
11:52 AM,32.0,27.0,82,29.97,2.0,SSE,17.3,25.3,0.00,Snow,Light Snow,160,2012-12-19 19:52:00
11:59 AM,32.0,26.6,80,29.92,1.0,SSE,17.3,-,0.00,Snow,Light Snow,160,2012-12-19 19:59:00
12:11 PM,32.0,28.4,87,29.92,0.8,SSE,16.1,-,0.00,Snow,Light Snow,160,2012-12-19 20:11:00
12:21 PM,32.0,28.4,87,29.92,0.5,SSE,15.0,-,0.01,Fog-Snow,Snow,160,2012-12-19 20:21:00
12:36 PM,32.0,28.4,87,29.92,0.8,SSE,17.3,-,0.01,Snow,Light Snow,160,2012-12-19 20:36:00
12:47 PM,32.0,28.4,87,29.92,1.0,SSE,16.1,-,0.02,Snow,Light Snow,150,2012-12-19 20:47:00
12:52 PM,32.0,28.9,88,29.96,0.8,SSE,17.3,-,0.02,Snow,Light Snow,150,2012-12-19 20:52:00
1:20 PM,32.0,28.4,87,29.91,1.0,SSE,16.1,-,0.01,Snow,Light Snow,150,2012-12-19 21:20:00
1:52 PM,32.0,30.0,92,29.96,1.8,SSE,10.4,-,0.01,Snow,Light Snow,150,2012-12-19 21:52:00
2:52 PM,33.1,30.9,92,29.93,1.8,SE,12.7,-,0.02,Snow,Light Snow,140,2012-12-19 22:52:00
2:55 PM,33.8,30.2,87,29.88,6.0,SE,15.0,-,0.00,Snow,Light Snow,140,2012-12-19 22:55:00
3:52 PM,33.1,30.9,92,29.91,10.0,SE,12.7,-,0.00,,Overcast,140,2012-12-19 23:52:00
4:52 PM,34.0,30.9,89,29.89,10.0,SE,16.1,24.2,N/A,,Overcast,140,2012-12-20 00:52:00
5:52 PM,34.0,30.0,85,29.87,10.0,SE,17.3,-,N/A,,Overcast,140,2012-12-20 01:52:00
6:52 PM,35.1,30.0,82,29.85,10.0,SSE,17.3,25.3,N/A,,Overcast,150,2012-12-20 02:52:00
7:52 PM,36.0,28.0,73,29.85,10.0,SSE,18.4,-,N/A,,Overcast,150,2012-12-20 03:52:00
8:52 PM,36.0,27.0,70,29.83,10.0,SSE,16.1,-,N/A,,Overcast,150,2012-12-20 04:52:00
9:52 PM,36.0,27.0,70,29.83,10.0,SSE,12.7,-,N/A,,Overcast,160,2012-12-20 05:52:00
10:52 PM,36.0,27.0,70,29.81,10.0,SE,15.0,-,N/A,,Overcast,140,2012-12-20 06:52:00
11:52 PM,37.0,26.1,65,29.80,10.0,SE,17.3,25.3,N/A,,Overcast,140,2012-12-20 07:52:00